This is the latest recevied weather packets stored in our database for station/object SP8NFE-1. If no packets are shown the sender has not sent any weather packets the latest 10 day(s).
| Time | Temp. | Humidity | Pressure | Rain* | Wind** | Luminosity | Snow |
|---|---|---|---|---|---|---|---|
| 1777642526 | 15° C | 43% | 0 hPa | 0 mm | - | - | - |
| 1777642226 | 15° C | 41% | 0 hPa | 0 mm | - | - | - |
| 1777641026 | 15° C | 40% | 0 hPa | 0 mm | - | - | - |
| 1777640127 | 14.44° C | 44% | 0 hPa | 0 mm | - | - | - |
| 1777639527 | 13.89° C | 46% | 0 hPa | 0 mm | - | - | - |
| 1777639227 | 13.89° C | 44% | 0 hPa | 0 mm | - | - | - |
| 1777637727 | 14.44° C | 46% | 0 hPa | 0 mm | - | - | - |
| 1777636227 | 14.44° C | 43% | 0 hPa | 0 mm | - | - | - |
| 1777635027 | 14.44° C | 45% | 0 hPa | 0 mm | - | - | - |
| 1777634743 | 13.89° C | 44% | 0 hPa | 0 mm | - | - | - |
| 1777634127 | 13.89° C | 43% | 0 hPa | 0 mm | - | - | - |
| 1777633827 | 13.89° C | 44% | 0 hPa | 0 mm | - | - | - |
| 1777633527 | 13.89° C | 44% | 0 hPa | 0 mm | - | - | - |
| 1777633227 | 13.89° C | 45% | 0 hPa | 0 mm | - | - | - |
| 1777631127 | 13.33° C | 46% | 0 hPa | 0 mm | - | - | - |
| 1777630827 | 13.33° C | 45% | 0 hPa | 0 mm | - | - | - |
| 1777630227 | 13.33° C | 44% | 0 hPa | 0 mm | - | - | - |
| 1777629927 | 13.33° C | 43% | 0 hPa | 0 mm | - | - | - |
| 1777627527 | 12.22° C | 45% | 0 hPa | 0 mm | - | - | - |
| 1777627227 | 11.67° C | 45% | 0 hPa | 0 mm | - | - | - |
| 1777626927 | 11.67° C | 45% | 0 hPa | 0 mm | - | - | - |
| 1777625727 | 11.11° C | 48% | 0 hPa | 0 mm | - | - | - |
| 1777625427 | 11.11° C | 45% | 0 hPa | 0 mm | - | - | - |
| 1777623627 | 10.56° C | 45% | 0 hPa | 0 mm | - | - | - |
| 1777623327 | 10° C | 45% | 0 hPa | 0 mm | - | - | - |
* Rain latest hour (hover to see other rain measurements)
** Current wind speed in m/s (hover to see current wind gust speed)